THOR ABLESTAR DEB, 2620

Orbit data source: Space-Track

THOR ABLESTAR DEB, 2620 is space debris in LEO originally from a launch on Thu, 05 Dec 1963 UTC launched from the Air Force Western Test Range (AFWTR). Debris objects in space refer to the collection of defunct objects orbiting the Earth. Examples of debris include non-operational satellites, rocket bodies, and fragments generated from explosions, collisions, or faulty payload assembly.

Loading next visibility...
Identifier
2620, 1963-049H
Orbit
LEO
Country
Flag of USUS
Related business
Manufacturer
Unknown
Mission
Spacecraft
Bus & Motor
Unknown
Mass
Unknown
Launch date (UTC)
1963-12-05 (63 years ago)
Launch vehicle
Unknown
Launch site
Air Force Western Test Range (AFWTR)
Object type
Payload
Rocket body
Debris
Shape & HBR
Unknown shape, 0.1 m
Radar Cross Section
Medium (>0.1 m² and <1 m²)

Expand to show TLE details & history
Last TLE update: 19 hours ago

TLE from 19 hours ago
0 THOR ABLESTAR DEB
1 02620U 63049H   26171.17210278  .00000190  00000-0  24284-3 0  9990
2 02620  89.9191  72.4637 0017205  86.0853  68.0914 13.59755860 90795
Epoch: 2026-06-20T04:07Z
TLE epoch observation values (Epoch: 2026-06-20T04:07:49.680Z)
Latitude
25.66935°
Longitude
-77.92252°
Altitude
1,035.017 km
Speed
7.339 km/s
True Right ascension
16h 49m 42s
True Declination
25° 32' 25"
Sunlit
Object was in full shadow at epoch
Visualization orbit readout
Latitude
Unknown
Longitude
Unknown
Altitude
Unknown
Speed
Unknown
Apparent Right ascension
Unknown
Apparent Declination
Unknown
Sunlit
N/A
Visualization observer readout
Local Sidereal Time
10:16:59
Azimuth
Unknown
Elevation
Unknown
Doppler factor
Unknown
Orbital elements
Apogee altitude
1,046.367 km
Perigee altitude
1,020.863 km
Semi-major axis
7,411.752 km
Eccentricity
0.00172
Inclination
89.9191°
RAAN
72.4637°
Arg. of periapsis
86.0853°
True anomaly
68.27446°
Mean anomaly
68.0914°
Eccentric anomaly
68.18292°
Mean motion
3.40143 °/min
Orbital period
105.84 mins
BSTAR
0.00024284
Loading maneuver chart data...
Computing Atmospheric mass density...
Loading historical data...
Loading historical data...
Loading historical data...
Loading historical data...
Loading historical data...
Loading historical data...
Loading historical data...

Documentation

Showing up to 5 results
|